Location: Jackson
(42.2460°N, 84.4010°W)
Time: 02:42:36
(UTC-05:00)

Tiros 1 - All Passes

Search period start: 15 February 2026 00:00
Search period end: 25 February 2026 00:00
Orbit: 618 x 649 km, 48.4° (Epoch: 13 February)

Date Brightness Start Highest point End Pass type
(mag) Time Alt. Az. Time Alt. Az. Time Alt. Az.
15 Feb - 08:50:01 10° S 08:53:23 20° SE 08:56:43 10° E daylight
15 Feb - 10:30:12 10° WSW 10:34:48 88° SSE 10:39:23 10° ENE daylight
15 Feb - 12:12:42 10° W 12:17:02 41° N 12:21:21 10° ENE daylight
15 Feb - 13:55:12 10° WNW 13:59:34 43° NNE 14:03:55 10° E daylight
15 Feb - 15:37:09 10° WNW 15:41:41 74° SSW 15:46:14 10° SE daylight
15 Feb - 17:20:15 10° W 17:23:00 16° SW 17:25:44 10° S daylight
16 Feb - 09:10:27 10° SSW 09:14:44 40° SE 09:19:00 10° ENE daylight
16 Feb - 10:52:00 10° W 10:56:33 59° NNW 11:01:03 10° ENE daylight
16 Feb - 12:34:43 10° WNW 12:38:59 37° N 12:43:14 10° ENE daylight
16 Feb - 14:16:54 10° WNW 14:21:25 59° NNE 14:25:55 10° E daylight
16 Feb - 15:58:59 10° WNW 16:03:13 39° SW 16:07:27 10° SSE daylight
17 Feb - 07:52:06 10° S 07:54:56 16° SE 07:57:46 10° E daylight
17 Feb - 09:31:41 10° SW 09:36:16 75° SSE 09:40:50 10° ENE daylight
17 Feb - 11:14:01 10° W 11:18:24 43° NNW 11:22:46 10° ENE daylight
17 Feb - 12:56:37 10° WNW 13:00:56 41° N 13:05:15 10° E daylight
17 Feb - 14:38:35 10° WNW 14:43:09 87° SSW 14:47:42 10° ESE daylight
17 Feb - 16:21:17 10° W 16:24:34 20° SW 16:27:51 10° S daylight
18 Feb - 08:12:09 10° SSW 08:16:15 32° SE 08:20:21 10° ENE daylight
18 Feb - 09:53:22 10° WSW 09:57:57 67° NNW 10:02:31 10° ENE daylight
18 Feb - 11:36:04 10° WNW 11:40:20 38° N 11:44:36 10° ENE daylight
18 Feb - 13:18:21 10° WNW 13:22:50 53° NNE 13:27:17 10° E daylight
18 Feb - 15:00:21 10° WNW 15:04:43 48° SW 15:09:06 10° SE daylight
19 Feb - 06:54:27 10° SSE 06:56:31 13° SE 06:58:35 10° ESE visible
19 Feb - 08:33:10 10° SW 08:37:44 63° SSE 08:42:16 10° ENE daylight
19 Feb - 10:15:20 10° W 10:19:46 46° NNW 10:24:12 10° ENE daylight
19 Feb - 11:58:00 10° WNW 12:02:18 39° N 12:06:35 10° ENE daylight
19 Feb - 13:40:02 10° WNW 13:44:36 80° NNE 13:49:09 10° ESE daylight
19 Feb - 15:22:27 10° W 15:26:08 24° SW 15:29:48 10° S daylight
20 Feb - 07:13:55 10° SSW 07:17:47 27° SE 07:21:38 10° E daylight
20 Feb - 08:54:45 10° WSW 08:59:22 77° NNW 09:03:58 10° ENE daylight
20 Feb - 10:37:23 10° WNW 10:41:41 39° N 10:45:59 10° ENE daylight
20 Feb - 12:19:46 10° WNW 12:24:13 48° NNE 12:28:37 10° E daylight
20 Feb - 14:01:44 10° WNW 14:06:13 58° SSW 14:10:40 10° SE daylight
20 Feb - 15:45:52 10° WSW 15:47:22 11° SW 15:48:51 10° SSW daylight
21 Feb - 07:34:43 10° SW 07:39:12 52° SE 07:43:40 10° ENE daylight
21 Feb - 09:16:39 10° W 09:21:09 51° NNW 09:25:38 10° ENE daylight
21 Feb - 10:59:22 10° WNW 11:03:39 38° N 11:07:55 10° ENE daylight
21 Feb - 12:41:27 10° WNW 12:46:01 70° NNE 12:50:33 10° ESE daylight
21 Feb - 14:23:41 10° WNW 14:27:39 30° SW 14:31:37 10° SSE daylight
22 Feb - 06:15:47 10° S 06:19:19 22° SE 06:22:50 10° E visible
22 Feb - 07:56:09 10° WSW 08:00:47 88° NNW 08:05:24 10° ENE daylight
22 Feb - 09:38:41 10° WNW 09:43:02 40° N 09:47:22 10° ENE daylight
22 Feb - 11:21:11 10° WNW 11:25:35 44° NNE 11:29:57 10° E daylight
22 Feb - 13:03:08 10° WNW 13:07:41 70° SSW 13:12:12 10° SE daylight
22 Feb - 14:46:25 10° W 14:48:56 15° SW 14:51:27 10° SSW daylight
23 Feb - 06:36:18 10° SSW 06:40:41 42° SE 06:45:02 10° ENE visible
23 Feb - 08:17:58 10° W 08:22:32 57° NNW 08:27:03 10° ENE daylight
23 Feb - 10:00:41 10° WNW 10:04:59 37° N 10:09:16 10° ENE daylight
23 Feb - 11:42:52 10° WNW 11:47:25 61° NNE 11:51:56 10° ESE daylight
23 Feb - 13:24:58 10° WNW 13:29:10 37° SW 13:33:21 10° SSE daylight
24 Feb - 05:17:46 10° S 05:20:50 18° SE 05:23:55 10° E visible
24 Feb - 06:57:34 10° SW 07:02:12 79° SSE 07:06:50 10° ENE daylight
24 Feb - 08:39:58 10° W 08:44:23 42° N 08:48:46 10° ENE daylight
24 Feb - 10:22:33 10° WNW 10:26:56 41° N 10:31:16 10° E daylight
24 Feb - 12:04:32 10° WNW 12:09:07 83° SSW 12:13:40 10° ESE daylight
24 Feb - 13:47:21 10° W 13:50:30 18° SW 13:53:38 10° S daylight
